Find Starlink 33816

NORAD ID: 63677 Int'l Des: 2025-085 Owner: SPXS Country: US Constellation: starlink operational
LEOCIRCULAR

实时位置

正在加载3D地球...

关于 Starlink 33816

正在加载描述...

即将过境

Passes for default location (London). Set your location on the main map for personalized predictions.

高度历史

Loading altitude history...

两行轨道根数

1 63677U 25085P 26126.52667468 .00012743 00000-0 47188-3 0 9998
2 63677 42.9935 64.4332 0000937 62.0164 298.0782 15.27572658 57818
Epoch: May 6, 2026 • Age: 11 hours

当前状态

高度 495.7 km
速度 7.62 km/s
星下点 -40.40°S, 142.19°E
发射日期 Apr 28, 2025
运行时间 1 years
类型 internet

技术详情

分类 Payload
质量 575.00 kg
干质量 530.00 kg
总质量 575.00 kg
长度 0.30 m
直径 4.10 m
跨度 29.00 m
形状 Box + pan
制造商 SPXS
平台类型 Starlink V2MO
阶段状态 In Orbit
所有者/国家 SPXS/US

Most Searched